Location: Ellerstadt
(49.4644°N, 8.2615°E)
Time: 03:28:32
(UTC+00:00)

Lacrosse 4 Rocket - Visible Passes

Search period start: 15 June 2021 00:00
Search period end: 25 June 2021 00:00
Orbit: 541 x 617 km, 68.0° (Epoch: 14 June)

Date Brightness Start Highest point End Pass type
(mag) Time Alt. Az. Time Alt. Az. Time Alt. Az.
15 Jun 4.4 00:48:59 10° N 00:51:49 17° NE 00:54:36 10° E visible
15 Jun 1.3 02:26:56 10° NW 02:31:06 88° SW 02:35:08 10° SSE visible
16 Jun 4.0 00:53:11 10° NNW 00:56:30 22° NE 00:59:45 10° E visible
16 Jun 1.4 02:31:27 10° NW 02:35:30 58° WSW 02:39:28 10° SSE visible
17 Jun 3.4 00:57:27 10° NNW 01:01:08 30° NE 01:04:43 10° ESE visible
17 Jun 1.9 02:36:03 10° NW 02:39:52 38° WSW 02:43:36 10° S visible
17 Jun 4.7 23:24:51 10° NNE 23:25:53 11° NNE 23:26:54 10° NE visible
18 Jun 2.7 01:01:46 10° NNW 01:05:42 41° NE 01:09:33 10° ESE visible
18 Jun 4.4 23:28:36 10° N 23:30:39 13° NNE 23:32:42 10° ENE visible
19 Jun 1.9 01:06:08 10° NNW 01:10:13 60° NE 01:14:13 10° SE visible
19 Jun 4.2 23:32:40 10° N 23:35:24 17° NE 23:38:05 10° ENE visible
20 Jun 1.3 01:10:34 10° NNW 01:14:41 88° ENE 01:18:44 10° SSE visible
20 Jun 3.8 23:36:50 10° NNW 23:40:04 22° NE 23:43:15 10° E visible
21 Jun 1.3 01:15:03 10° NW 01:19:07 61° WSW 01:22:58 11° SSE visible
21 Jun 3.2 23:41:05 10° NNW 23:44:43 28° NE 23:48:15 10° ESE visible
22 Jun 1.8 01:19:38 10° NW 01:23:29 40° WSW 01:26:08 17° S visible
22 Jun 4.5 22:08:43 10° NNE 22:09:27 10° NNE 22:10:11 10° NE visible
22 Jun 2.6 23:45:24 10° NNW 23:49:17 39° NE 23:53:06 10° ESE visible
23 Jun 2.4 01:24:21 10° NW 01:27:47 26° WSW 01:29:31 20° SSW visible
23 Jun 4.2 22:12:17 10° N 22:14:14 13° NNE 22:16:08 10° ENE visible
23 Jun 1.9 23:49:45 10° NNW 23:53:48 57° NE 23:56:49 17° SE visible
24 Jun 2.9 01:29:17 10° WNW 01:32:03 18° WSW 01:33:04 16° SW visible
24 Jun 4.0 22:16:19 10° N 22:18:57 16° NE 22:21:34 10° ENE visible
